Regional Weather Roundup
Issued by NWS Cleveland, OH

Home | Current Version | Previous Version | Text Only | Print | Product List | Glossary On
Versions: 1 2 3 4 5 6 7 8 9 10 11 12 13 14 15 16 17 18 19 20 21 22 23 24 25 26 27 28 29 30 31 32 33 34 35 36 37 38 39 40 41 42 43 44 45 46 47 48 49 50
000
ASUS41 KCLE 311012
RWRCLE
OHIO REGIONAL WEATHER ROUNDUP
NATIONAL WEATHER SERVICE WILMINGTON, OH
600 AM EDT TUE MAY 31 2016

NOTE: "FAIR" INDICATES FEW OR NO CLOUDS BELOW 12,000 FEET WITH NO
SIGNIFICANT WEATHER AND/OR OBSTRUCTIONS TO VISIBILITY.

OHZ001>008-015>018-024>027-034-035-043-044-311100-
   NORTHWEST OHIO

CITY           SKY/WX    TMP DP  RH WIND       PRES   REMARKS
DEFIANCE       FAIR      60  53  77 CALM      30.00S
FINDLAY        FAIR      65  51  60 CALM      29.99R
TOLEDO EXPRESS FAIR      60  52  74 CALM      30.00R
TOLEDO EXEC    FAIR      65  51  60 N3        30.00R
LIMA           FAIR      65  53  65 NE7       29.99S
$$

OHZ009>014-019>023-028>033-038-089-311100-
   NORTHEAST OHIO

CITY           SKY/WX    TMP DP  RH WIND       PRES   REMARKS
CLE-HOPKINS    FAIR      62  55  77 CALM      30.00R
CLE-LAKEFRONT  FAIR      67  55  65 SE8       29.97R
CUY CO. ARPT   NOT AVBL
LORAIN-ELYRIA  FAIR      58  55  90 N3        30.00R
ASHTABULA      FAIR      57  55  93 CALM      30.01R
AKRON-CANTON   FAIR      63  53  70 E3        30.00S
WOOSTER        FAIR      56  53  90 CALM      30.00S FOG
MANSFIELD      FAIR      59  57  93 CALM      30.00S
YOUNGSTOWN     MOCLDY    55  53  93 E5        30.00S
$$

OHZ042-051>053-060>062-070>072-077>081-311100-
  SOUTHWEST OHIO

CITY           SKY/WX    TMP DP  RH WIND       PRES   REMARKS
CINC-COVINGTON MOCLDY    67  58  72 CALM      29.99R
CINC-LUNKEN    MOCLDY    62  62 100 CALM      29.99R
HAMILTON       FAIR      60  59  96 CALM      29.99R
DAYTON         FAIR      63  55  75 CALM      30.00R
WRIGHT-PAT AFB CLEAR     61  61 100 VRB5      29.99R
DAYTON GENERAL FAIR      65  55  70 CALM      29.98R
WILMINGTON     FAIR      64  58  80 CALM      29.99S
$$

OHZ036-037-039>041-045>050-054>059-063>069-073>076-082>088-311100-
  CENTRAL AND SOUTHEAST OHIO

CITY           SKY/WX    TMP DP  RH WIND       PRES   REMARKS
COLUMBUS       FAIR      61  59  93 CALM      29.98S
OSU AIRPORT    FAIR      61  58  90 CALM      29.99R
BOLTON FIELD   FAIR      61  59  94 CALM      29.99S
RICKENBACK AFB FAIR      60  59  96 CALM      29.98S
NEWARK         FAIR      56  54  93 CALM      29.99R
MARION         MOCLDY    61  57  87 CALM      30.00R
LANCASTER      FAIR      57  56  96 CALM      30.00R
ZANESVILLE     FAIR      59  56  89 CALM      30.00S
NEW PHILLY     FAIR      60  56  86 CALM      30.00S
$$




USA.gov is the U.S. government's official web portal to all federal, state and local government web resources and services.